Wind_Speed
22 23 25 25 25 26 27 29 29 29 29 28 29 29 30 31 31 31 32 32 32 33 33 33 33 34 33 33 33 34 34 35 35 34 34 35 35 35 36 36 37 37 38
22 24 25 26 26 26 27 27 29 29 29 29 29 30 31 31 31 32 33 34 34 34 34 35 34 34 33 34 34 35 35 36 37 37 37 36 36 36 37 37 38 39 39
22 24 25 25 26 26 27 28 29 29 29 29 30 31 31 32 32 34 34 34 34 34 34 35 35 35 34 34 35 35 36 36 37 38 38 38 38 38 37 38 39 39 40
22 23 25 26 26 27 27 27 28 30 30 30 31 32 31 32 32 32 33 34 34 34 35 35 35 35 35 35 36 37 37 38 38 38 39 39 40 40 40 40 40 40 41
22 23 25 26 26 27 28 28 29 30 30 30 30 30 31 31 31 31 31 32 33 34 35 36 36 37 37 37 38 38 39 39 39 40 40 40 40 41 41 41 41 42 43
23 24 25 26 26 27 29 29 30 31 31 31 31 31 31 32 32 32 33 33 33 35 36 36 37 39 39 39 39 39 40 40 41 41 41 42 42 43 43 43 43 43 43
24 25 27 27 27 28 29 30 31 32 33 33 33 33 33 34 34 34 35 35 35 36 36 37 38 40 41 41 41 41 42 42 43 43 43 43 44 45 45 45 45 45 45
26 27 28 28 28 29 30 30 31 32 33 34 35 35 35 36 36 36 36 37 37 37 38 38 40 41 42 42 42 43 43 44 44 44 44 45 45 46 47 47 47 47 46
27 28 29 30 31 31 32 32 33 33 34 34 35 36 36 37 37 38 38 38 38 39 39 40 41 42 43 44 44 45 45 45 45 46 46 46 47 48 48 48 49 49 48
29 29 31 32 32 32 33 34 34 35 36 36 36 36 37 38 39 40 40 40 40 41 41 42 43 44 45 46 46 46 46 47 47 47 47 48 49 49 49 49 49 49 49
30 31 32 33 34 35 35 35 36 36 36 37 37 37 38 40 41 42 42 42 43 43 44 44 45 46 47 47 47 47 48 48 48 49 49 49 50 49 49 49 49 49 49
32 33 34 34 35 35 36 36 37 38 38 39 39 40 40 42 43 44 44 45 45 46 46 47 46 47 48 48 49 48 49 49 50 50 50 50 50 50 50 50 50 50 50
34 34 35 35 35 36 37 38 39 40 40 41 42 42 43 43 44 45 46 47 47 48 48 48 48 48 49 50 50 50 50 50 51 51 51 51 50 50 50 50 50 50 51
36 37 37 37 37 38 39 39 40 41 42 42 43 44 44 45 46 47 47 48 48 48 49 49 49 49 50 50 51 52 52 51 51 51 51 51 51 51 51 50 50 50 50
38 39 39 39 40 40 41 41 42 43 43 44 44 45 46 47 47 48 49 49 49 49 50 50 50 50 50 51 52 52 52 52 51 51 51 52 52 51 51 50 50 50 50
40 41 41 42 42 42 43 43 44 45 45 45 45 46 47 48 48 49 50 50 50 50 50 51 51 51 52 51 52 52 53 52 51 50 50 51 51 51 51 51 50 50 50
42 42 43 44 44 44 45 45 46 46 46 46 46 47 48 49 50 50 51 51 51 51 51 51 50 50 51 51 51 52 52 51 50 50 50 50 50 50 50 49 49 49 50
44 44 45 45 45 46 46 46 46 46 47 47 48 48 49 49 50 51 51 52 52 52 51 51 51 50 50 50 51 51 50 50 49 49 49 49 48 48 48 48 48 48 48
45 45 46 46 46 46 47 47 47 47 47 48 49 49 49 50 50 50 51 51 51 50 50 50 50 49 49 49 49 49 48 48 48 47 47 47 47 47 47 46 46 46 46
46 46 46 47 46 47 47 47 47 48 48 48 49 49 49 50 50 49 49 49 49 49 48 48 48 48 48 48 47 48 48 47 47 47 47 47 47 46 46 46 45 45 45
47 47 47 46 46 46 47 47 48 48 49 49 49 49 49 49 49 48 48 47 47 47 47 46 47 47 47 47 47 47 47 46 46 46 45 45 45 45 44 44 44 44 44
47 46 46 46 46 46 47 47 47 48 48 48 48 48 47 47 47 46 46 46 46 46 46 46 46 45 45 45 45 46 46 46 45 44 43 43 43 42 43 43 42 42 42
47 47 47 46 46 46 47 47 47 47 47 46 46 46 46 45 45 45 45 45 45 45 44 44 44 44 44 44 44 45 45 44 44 42 41 40 40 40 40 40 40 40 40
46 46 47 46 46 46 46 46 45 45 45 44 44 44 44 43 43 43 44 44 43 43 43 43 43 43 43 43 43 43 43 42 41 41 40 39 38 38 38 38 38 38 38
46 46 45 45 45 45 45 44 44 44 44 44 44 43 43 43 42 42 42 42 42 42 42 41 42 42 42 42 43 42 41 40 40 39 38 37 36 36 37 37 37 37 36
45 45 45 44 44 44 44 44 44 43 43 43 43 42 42 42 42 42 41 41 41 40 40 40 41 41 42 42 41 41 40 39 38 38 37 36 35 35 35 35 35 35 35
Wind_Direction
246 247 246 246 245 244 244 244 245 246 249 252 252 255 255 255 257 256 257 258 259 260 260 260 262 262 262 263 264 266 268 270 271 271 272 274 275 275 276 276 277 277 277
248 248 248 247 247 247 246 245 245 248 251 253 255 255 256 256 259 258 258 259 260 261 262 262 263 264 264 266 266 269 271 271 272 272 273 274 274 276 277 277 277 277 278
247 247 247 246 245 246 246 247 249 250 253 255 256 258 258 258 260 261 260 260 260 260 261 261 263 265 266 268 269 270 272 273 274 275 275 275 275 276 277 278 278 278 278
247 246 245 245 245 246 246 248 251 253 256 257 258 259 260 261 261 262 262 260 259 260 261 262 265 267 267 269 270 272 272 273 274 276 277 277 277 277 277 277 279 279 280
251 249 247 247 249 249 250 253 255 256 258 259 259 260 261 263 263 264 264 260 259 261 262 264 267 268 269 270 271 272 272 273 274 275 277 278 278 278 278 278 278 279 280
254 253 252 252 255 255 254 257 259 259 260 262 262 262 263 263 265 266 266 264 262 262 263 265 267 268 270 270 271 272 273 274 275 276 276 277 278 279 279 279 279 279 279
256 257 256 257 258 259 260 261 260 262 263 264 264 264 264 265 266 268 269 268 267 267 267 268 269 269 270 271 272 273 273 274 275 275 276 277 278 278 279 280 280 280 279
257 258 259 260 261 261 263 264 264 264 265 265 265 266 265 266 266 268 269 270 269 270 270 271 271 271 271 272 273 273 274 274 275 275 276 277 277 278 279 280 280 280 279
260 260 261 263 264 265 265 265 266 267 268 266 267 266 267 267 267 267 269 270 270 271 271 272 273 273 273 273 275 274 274 275 276 276 276 277 278 278 279 279 279 279 279
263 263 263 265 267 266 267 267 267 267 268 268 268 270 268 267 267 268 270 271 271 272 273 273 274 274 274 274 276 276 275 275 276 276 277 277 278 278 279 279 279 279 279
265 264 264 266 267 267 267 268 269 268 270 270 270 271 270 268 268 269 270 271 272 273 273 274 275 276 276 276 276 276 276 276 276 277 277 277 277 278 279 279 279 279 279
268 268 268 269 269 269 269 268 270 270 271 271 270 271 271 270 269 269 270 272 272 273 274 275 275 276 276 276 277 278 277 277 277 277 277 278 278 278 278 279 279 279 279
270 269 269 270 271 271 270 270 271 272 272 272 271 271 271 271 272 272 272 273 273 274 274 275 275 276 277 277 277 277 278 278 278 278 278 278 278 278 278 279 279 279 279
270 269 270 270 270 271 271 272 273 274 274 274 272 272 272 272 273 274 275 275 274 274 274 275 275 276 276 277 277 278 279 279 279 278 278 277 277 278 278 278 279 280 279
270 269 270 270 270 271 272 272 273 274 275 274 274 273 273 273 274 274 274 275 275 276 275 276 276 276 277 278 278 278 279 279 279 279 278 277 277 278 278 278 279 279 279
271 270 270 270 271 272 273 273 274 275 275 275 274 274 274 274 274 274 274 275 275 276 277 277 276 277 277 278 278 279 279 279 279 280 279 278 278 278 278 279 279 279 279
272 271 270 271 271 272 273 274 274 275 274 274 274 274 274 275 275 275 275 275 276 276 276 277 277 278 278 279 279 279 279 279 280 281 281 280 279 279 279 279 278 278 278
274 272 271 271 271 272 273 273 274 275 275 275 275 275 275 275 276 275 276 276 276 276 277 278 278 278 279 280 280 279 279 279 280 281 281 281 280 279 278 278 279 279 278
274 272 272 272 272 272 272 273 274 275 275 276 276 275 275 276 276 276 276 277 276 276 276 277 277 278 279 280 279 279 279 280 280 281 281 281 280 278 277 278 278 278 278
273 272 272 272 272 273 273 274 275 276 276 276 276 276 276 276 276 277 277 276 276 277 276 276 277 278 279 279 279 279 280 280 280 280 281 280 280 279 278 277 278 278 278
273 272 272 272 273 274 274 275 277 277 277 277 277 276 277 276 276 277 277 277 277 277 277 277 277 278 279 279 279 280 281 281 281 280 280 279 278 277 277 277 278 278 278
273 272 272 272 273 274 275 276 277 278 277 277 277 277 277 277 276 276 276 277 277 277 277 277 278 278 279 279 279 280 281 281 281 280 280 280 278 277 277 277 278 279 279
274 272 272 273 274 275 276 277 278 278 277 277 277 277 277 276 276 276 276 276 277 278 278 278 278 278 278 278 279 280 281 281 281 280 279 279 278 278 278 278 278 278 279
275 274 273 273 274 274 276 277 277 278 278 278 277 277 276 275 275 275 275 276 277 278 278 278 278 279 279 279 279 280 280 280 280 279 278 278 278 278 278 279 278 279 279
275 275 274 273 274 274 274 276 276 276 277 277 276 276 275 275 274 274 276 277 277 278 278 278 279 279 280 280 280 280 279 279 278 277 277 277 278 280 280 279 278 279 279
275 274 273 273 274 273 273 274 275 275 276 277 276 276 275 275 274 275 276 277 277 277 278 278 279 280 281 281 281 280 279 277 276 276 277 278 278 279 279 278 278 279 279
Height
5729 5731 5734 5737 5739 5742 5744 5747 5750 5752 5755 5756 5758 5760 5762 5763 5765 5767 5768 5769 5771 5772 5774 5775 5776 5777 5778 5779 5780 5780 5781 5781 5781 5782 5782 5782 5781 5781 5781 5780 5780 5780 5779
5725 5727 5729 5732 5734 5737 5739 5742 5744 5747 5749 5751 5752 5754 5756 5757 5759 5760 5761 5762 5764 5765 5766 5768 5769 5770 5771 5771 5772 5772 5773 5773 5773 5773 5773 5774 5774 5773 5772 5772 5771 5770 5770
5722 5723 5725 5728 5730 5732 5734 5737 5739 5741 5743 5745 5746 5748 5749 5750 5752 5752 5753 5754 5756 5757 5758 5760 5761 5762 5763 5763 5764 5764 5764 5765 5764 5764 5764 5764 5764 5764 5764 5763 5762 5761 5760
5718 5719 5721 5724 5726 5728 5729 5731 5733 5735 5737 5739 5740 5741 5742 5743 5744 5745 5745 5747 5748 5749 5750 5752 5753 5754 5754 5755 5755 5755 5755 5755 5755 5755 5754 5754 5754 5754 5754 5754 5753 5751 5750
5714 5716 5718 5720 5722 5723 5725 5726 5728 5729 5731 5732 5733 5734 5735 5736 5737 5737 5738 5739 5740 5741 5742 5743 5744 5745 5745 5746 5746 5746 5745 5745 5745 5745 5744 5744 5743 5743 5743 5743 5743 5741 5740
5710 5712 5713 5715 5717 5718 5720 5721 5722 5722 5723 5725 5726 5727 5728 5729 5729 5730 5730 5730 5731 5732 5733 5734 5735 5735 5736 5736 5736 5735 5735 5735 5735 5734 5734 5733 5733 5732 5731 5731 5731 5730 5729
5706 5707 5709 5710 5712 5713 5714 5715 5715 5716 5717 5718 5718 5719 5720 5721 5721 5722 5722 5722 5722 5723 5724 5724 5725 5725 5725 5725 5725 5725 5725 5724 5724 5723 5722 5722 5721 5720 5719 5719 5719 5718 5717
5701 5702 5703 5704 5705 5706 5707 5708 5708 5709 5710 5710 5711 5711 5712 5712 5712 5712 5713 5713 5713 5713 5714 5714 5715 5715 5715 5714 5714 5714 5713 5713 5712 5711 5711 5710 5709 5708 5707 5706 5705 5705 5705
5695 5696 5697 5697 5698 5699 5699 5700 5701 5701 5701 5702 5702 5702 5703 5703 5703 5703 5703 5703 5703 5703 5703 5703 5704 5703 5703 5703 5703 5702 5701 5701 5700 5699 5698 5698 5697 5695 5694 5693 5691 5691 5691
5688 5689 5689 5690 5690 5691 5691 5691 5692 5692 5692 5692 5692 5692 5692 5693 5693 5693 5693 5693 5693 5692 5692 5692 5692 5691 5691 5691 5690 5690 5689 5688 5687 5687 5686 5685 5684 5682 5681 5679 5678 5677 5676
5681 5681 5682 5682 5682 5682 5682 5683 5682 5682 5683 5682 5682 5682 5682 5682 5682 5682 5682 5682 5681 5681 5681 5680 5680 5679 5679 5678 5677 5677 5676 5675 5674 5673 5672 5671 5670 5668 5667 5666 5665 5663 5662
5673 5673 5674 5673 5673 5673 5673 5673 5673 5673 5673 5672 5672 5672 5672 5671 5671 5671 5671 5670 5670 5669 5669 5668 5667 5667 5666 5665 5664 5663 5662 5661 5660 5659 5658 5657 5655 5654 5653 5652 5651 5650 5648
5664 5664 5664 5664 5664 5664 5663 5663 5663 5663 5662 5662 5662 5661 5661 5660 5660 5660 5659 5658 5658 5657 5656 5655 5654 5654 5653 5651 5650 5649 5648 5647 5646 5644 5643 5642 5641 5640 5639 5638 5636 5635 5634
5654 5654 5654 5654 5654 5653 5653 5653 5652 5652 5651 5650 5650 5649 5649 5648 5648 5647 5646 5646 5645 5644 5643 5642 5641 5640 5639 5638 5636 5635 5634 5633 5631 5630 5628 5627 5626 5625 5624 5623 5622 5620 5619
5644 5644 5644 5643 5643 5642 5642 5641 5641 5640 5639 5638 5638 5637 5636 5636 5635 5634 5633 5632 5631 5630 5629 5628 5627 5626 5625 5623 5622 5620 5619 5618 5617 5615 5614 5613 5611 5610 5609 5608 5607 5606 5605
5633 5632 5632 5631 5631 5630 5630 5629 5628 5627 5626 5626 5625 5624 5623 5622 5622 5621 5619 5619 5618 5616 5615 5614 5613 5612 5610 5609 5607 5605 5604 5603 5602 5601 5599 5598 5596 5595 5594 5592 5591 5591 5590
5621 5620 5619 5619 5618 5618 5617 5616 5615 5614 5613 5612 5611 5610 5610 5609 5608 5607 5606 5605 5604 5602 5601 5600 5599 5598 5596 5594 5592 5590 5589 5588 5587 5585 5584 5583 5581 5580 5579 5577 5576 5575 5574
5608 5607 5606 5606 5605 5604 5604 5603 5602 5601 5600 5599 5598 5596 5595 5595 5594 5592 5591 5590 5589 5588 5587 5585 5584 5583 5582 5579 5577 5575 5574 5573 5572 5571 5569 5568 5566 5565 5564 5563 5562 5561 5560
5595 5594 5593 5592 5591 5591 5590 5589 5588 5587 5586 5585 5583 5582 5581 5580 5579 5578 5577 5576 5574 5573 5572 5571 5570 5568 5567 5565 5563 5561 5560 5559 5558 5556 5554 5553 5552 5550 5549 5548 5548 5547 5546
5581 5580 5579 5579 5578 5577 5576 5575 5574 5573 5572 5570 5569 5568 5567 5566 5564 5563 5562 5561 5560 5559 5558 5557 5555 5554 5553 5551 5548 5546 5545 5545 5543 5542 5540 5538 5537 5536 5534 5534 5533 5533 5532
5567 5566 5565 5565 5564 5563 5562 5561 5560 5559 5557 5556 5554 5553 5552 5551 5550 5549 5548 5547 5546 5545 5544 5543 5542 5540 5538 5537 5535 5533 5531 5529 5528 5527 5526 5524 5522 5522 5521 5520 5520 5519 5518
5553 5552 5551 5551 5550 5549 5548 5547 5546 5545 5543 5542 5540 5539 5538 5536 5535 5535 5534 5533 5532 5531 5530 5529 5528 5526 5525 5523 5521 5519 5517 5515 5514 5513 5512 5510 5509 5508 5508 5507 5506 5505 5504
5539 5538 5537 5537 5536 5535 5534 5533 5532 5530 5529 5528 5526 5525 5524 5523 5522 5521 5520 5519 5518 5517 5516 5515 5514 5513 5511 5510 5508 5506 5504 5502 5500 5499 5498 5497 5496 5496 5495 5494 5493 5493 5492
5525 5524 5523 5523 5522 5521 5520 5519 5518 5516 5515 5514 5513 5511 5510 5509 5509 5508 5507 5506 5505 5504 5503 5502 5500 5499 5498 5497 5495 5492 5491 5489 5487 5486 5485 5485 5484 5484 5483 5482 5481 5480 5480
5511 5510 5509 5508 5508 5507 5506 5505 5504 5503 5502 5501 5499 5498 5497 5496 5496 5495 5494 5493 5492 5491 5490 5489 5487 5486 5485 5484 5481 5479 5478 5477 5475 5474 5474 5473 5473 5472 5472 5471 5470 5469 5469
5496 5496 5495 5495 5494 5493 5493 5492 5490 5489 5488 5487 5486 5485 5484 5483 5483 5482 5482 5481 5480 5479 5477 5476 5475 5473 5472 5471 5469 5467 5465 5464 5464 5463 5463 5462 5462 5461 5460 5460 5459 5459 5458